Flag Weather past 2 weeks in Hobart, Tasmania, Australia

Now
55 °F

Partly sunny.


Feels Like: 53 °F
Forecast: 41 / 68 °F
Wind: 9 mph from Northwest

Location: Hobart Airport

Current Time: Nov 28, 2014 at 9:20:16 AM

Latest Report: Nov 28, 2014 at 8:30 AM


Visibility: N/A

Pressure: 30.21 "Hg

Humidity: 44%

Dew point: 34 °F

Location of HobartLocation

Historic Weather in Hobart — Graph

°F

Hobart temperature yesterday

Maximum temperature yesterday: 66 °F (at 1:30 PM)
Minimum temperature yesterday: 50 °F (at 5:30 AM)
Average temperature yesterday: 57 °F

Past Weeks' High & Low Weather Summary

 TemperatureHumidityPressure
High79 °F (Nov 19, 1:30 PM)100% (Nov 21, 5:30 AM)30.24 "Hg (Nov 21, 5:30 AM)
Low43 °F (Nov 15, 4:30 AM)16% (Nov 19, 2:00 PM)29.47 "Hg (Nov 17, 12:00 AM)
Average58 °F59%29.78 "Hg
* Reported Nov 13 8:00 AM — Nov 28 8:00 AM, Hobart, Weather by CustomWeather, © 2014

Note: Actual official high and low records may vary slightly from our data, if they occured in-between our weather recording intervals... More about our weather records

Advertising

Hobart weather history for previous 24 hours

 ConditionsComfort  
Time TempWeatherWind HumidityBarometerVisibility
8:00 AM
Nov 28
55 °FScattered clouds.9 mph47%30.21 "HgN/A
7:30 AM54 °FPartly sunny.8 mph54%30.21 "HgN/A
7:00 AM54 °FPartly sunny.7 mph54%30.21 "HgN/A
6:30 AM52 °FPartly sunny.8 mph62%30.21 "HgN/A
6:00 AM52 °FPartly sunny.6 mph72%30.21 "HgN/A
5:00 AM52 °FPassing clouds.3 mph72%30.21 "HgN/A
4:30 AM52 °FPassing clouds.6 mph62%30.21 "HgN/A
4:00 AM52 °FPassing clouds.6 mph62%30.21 "HgN/A
3:30 AM52 °FPassing clouds.6 mph62%30.18 "HgN/A
3:00 AM52 °FPassing clouds.8 mph58%30.21 "HgN/A
2:30 AM52 °FPassing clouds.7 mph62%30.21 "HgN/A
2:00 AM52 °FPassing clouds.6 mph72%30.21 "HgN/A
1:30 AM52 °FPassing clouds.2 mph72%30.21 "HgN/A
1:00 AM52 °FPassing clouds.1 mph77%30.21 "HgN/A
12:00 AM50 °FPassing clouds.1 mph71%30.24 "HgN/A
11:30 PM
Nov 27
52 °FPassing clouds.No wind72%30.24 "HgN/A
11:00 PM52 °FPassing clouds.7 mph72%30.24 "HgN/A
10:30 PM52 °FPassing clouds.8 mph67%30.24 "HgN/A
10:00 PM52 °FPassing clouds.9 mph67%30.24 "HgN/A
9:30 PM52 °FPassing clouds.10 mph67%30.24 "HgN/A
9:00 PM54 °FPassing clouds.10 mph63%30.24 "HgN/A
8:30 PM54 °FPassing clouds.12 mph67%30.24 "HgN/A
8:00 PM55 °FPassing clouds.15 mph63%30.21 "HgN/A
7:00 PM57 °FPassing clouds.21 mph59%30.21 "HgN/A
6:30 PM57 °FPassing clouds.18 mph59%30.21 "HgN/A
6:00 PM59 °FPassing clouds.21 mph59%30.18 "HgN/A
5:30 PM59 °FPassing clouds.24 mph59%30.18 "HgN/A
5:00 PM59 °FPassing clouds.25 mph59%30.18 "HgN/A
4:30 PM63 °FPassing clouds.23 mph42%30.18 "HgN/A
4:00 PM63 °FPassing clouds.22 mph39%30.18 "HgN/A
3:30 PM63 °FPassing clouds.22 mph56%30.18 "HgN/A
3:00 PM64 °FPassing clouds.21 mph37%30.18 "HgN/A
2:30 PM64 °FPassing clouds.18 mph34%30.18 "HgN/A
2:00 PM64 °FPassing clouds.17 mph32%30.18 "HgN/A
1:45 PM64 °FPassing clouds.18 mph32%30.18 "HgN/A
1:30 PM66 °FPassing clouds.20 mph32%30.18 "HgN/A
1:00 PM63 °FPassing clouds.21 mph37%30.18 "HgN/A
12:30 PM63 °FPassing clouds.17 mph37%30.21 "HgN/A
12:00 PM63 °FScattered clouds.18 mph34%30.21 "HgN/A
11:30 AM61 °FScattered clouds.18 mph36%30.21 "HgN/A
11:00 AM63 °FScattered clouds.21 mph37%30.21 "HgN/A
10:30 AM61 °FScattered clouds.20 mph39%30.21 "HgN/A
10:00 AM59 °FScattered clouds.21 mph39%30.21 "HgN/A
9:54 AM59 °FScattered clouds.17 mph39%30.21 "HgN/A
9:00 AM57 °FScattered clouds.9 mph44%30.21 "HgN/A
Weather by CustomWeather, © 2014

See weather overviewHow to use our weather pages